Regional Weather Roundup
Issued by NWS Huntsville, AL

Home | Current Version | Previous Version | Text Only | Print | Product List | Glossary On
Versions: 1 2 3 4 5 6 7 8 9 10 11 12 13 14 15 16 17 18 19 20 21 22 23 24 25 26 27 28 29 30 31 32 33 34 35 36 37 38 39 40 41 42 43 44 45 46 47 48 49 50
000
ASUS44 KHUN 050510
RWRHUN

WEATHER ROUNDUP FOR THE TENNESSEE VALLEY
NATIONAL WEATHER SERVICE HUNTSVILLE AL
1200 AM CDT WED AUG 05 2015

ALZ001>004-050600-
NORTHWEST ALABAMA

CITY           SKY/WX    TMP DP  RH WIND       PRES   REMARKS
BANKHEAD NF      N/A     78  69  73 CALM        N/A
SHOALS AIRPORT MOCLDY    78  72  81 CALM      30.03R
SHOALS TVA RES   N/A     77 N/A N/A MISG        N/A
$$

ALZ005>007-016-050600-
NORTH CENTRAL ALABAMA

CITY           SKY/WX    TMP DP  RH WIND       PRES   REMARKS
DECATUR AP     PTCLDY    78  69  73 SE8       30.03R
HUNTSVILLE AP  LGT RAIN  81  70  69 S3        30.03R
HUN NWS/UAH      N/A     83  66  56 SW3         N/A
MERIDIANVILLE  PTCLDY    77  66  69 CALM      30.04R
REDSTONE ARSN  CLOUDY    81  69  67 S7        30.02R
VINEMONT AP    FAIR      78  68  71 CALM      30.07S
$$

ALZ008>010-050600-
NORTHEAST ALABAMA

CITY           SKY/WX    TMP DP  RH WIND       PRES   REMARKS
ALBERTVILLE    MOCLDY    79  72  78 NW8       30.04F
FORT PAYNE     PTCLDY    72  64  78 CALM      30.03S
SCOTTSBORO AP  MOCLDY    77  72  83 CALM      30.04R
SCOTTSBORO HCN   N/A     73 N/A N/A MISG        N/A
VALLEY HEAD      N/A     73 N/A N/A MISG        N/A
$$

TNZ076-096-097-050600-
SOUTHEASTERN MIDDLE TENNESSEE

CITY           SKY/WX    TMP DP  RH WIND       PRES   REMARKS
TULLAHOMA      CLEAR     75  70  83 CALM      30.06S
WINCHESTER     CLEAR     73  72  94 CALM      30.04F
$$

...SURROUNDING SITES...

CITY           SKY/WX    TMP DP  RH WIND       PRES   REMARKS
ATLANTA        PTCLDY    79  66  64 S7        30.05R
ANNISTON       CLEAR     75  69  81 CALM      30.02R
BIRMINGHAM     CLEAR     78  69  73 NE3       30.04R
CHATTANOOGA    PTCLDY    81  73  76 NW3       30.03S
DALTON         CLEAR     72  72 100 CALM      30.03S
GADSDEN        PTCLDY    79  63  57 N7        30.01S
GOLDEN TRNGL   CLEAR     77  68  73 S3        29.99S
HALEYVILLE     FAIR      75  71  87 CALM      30.06S
JACKSON TN     CLOUDY    79  75  87 SW5       30.00S
MEMPHIS        CLOUDY    88  68  51 CALM      29.99S HX  91
NASHVILLE      CLOUDY    81  71  71 NE7       30.02F
ROME           CLEAR     77  70  79 NE3       30.01S
SAVANNAH       CLEAR     73  32  21 CALM      30.02R
TUPELO         CLEAR     80  74  81 CALM      29.99S
TUSCALOOSA     CLEAR     73  69  87 S8        30.00R
$$

...GULF COAST WEATHER...

CITY           SKY/WX    TMP DP  RH WIND       PRES   REMARKS
GULFPORT       MOCLDY    83  78  85 S6        30.00S HX  93
PASCAGOULA     MOCLDY    84  76  76 S7        30.02R HX  93
MOBILE         CLEAR     80  76  87 MISG      30.03S
GULF SHORES    PTCLDY    83  76  81 SW7       30.03F HX  91
PENSACOLA      CLEAR     83  76  79 SW8       30.03S HX  91
DESTIN         PTCLDY    85  76  74 VRB5      30.04R HX  94
PANAMA CITY    CLEAR     83  75  76 SW10      30.05R HX  91
APPALACHICOLA  CLEAR     84  76  76 SW8       30.05R HX  93
$$



USA.gov is the U.S. government's official web portal to all federal, state and local government web resources and services.